Location: Unspecified
(0.0000°N, 0.0000°E)
Time: 20:04:38
(UTC+01:00)

GPS 2-15 Rocket1 - Visible Passes

Search period start: 11 December 2017 00:00
Search period end: 21 December 2017 00:00
Orbit: 624 x 676 km, 19.8° (Epoch: 10 December)

Date Brightness Start Highest point End Pass type
(mag) Time Alt. Az. Time Alt. Az. Time Alt. Az.
11 Dec 5.1 04:39:17 22° S 04:39:17 22° S 04:42:15 10° SE visible
12 Dec 5.4 05:03:46 14° SSW 05:04:51 15° SSW 05:07:33 10° SSE visible
14 Dec 6.0 04:15:04 12° S 04:15:04 12° S 04:15:42 10° SSE visible
17 Dec 5.2 19:30:48 10° N 19:32:03 11° NNE 19:33:19 10° NNE visible
18 Dec 4.7 19:55:29 10° NNW 19:58:37 18° NNE 19:59:28 17° NNE visible
19 Dec 6.1 06:26:15 10° S 06:27:14 11° SSE 06:28:13 10° SSE visible
19 Dec 4.1 20:20:57 10° NW 20:24:40 30° N 20:24:40 30° N visible
20 Dec 3.9 20:46:47 10° WNW 20:49:57 39° NW 20:49:57 39° NW visible
